CAPE
0 0 0 0 0 0 0 0 1 0 25 0 0 0 61 128 99 0 0 0 0 0 0 0 0 0 0 0 0 0 0 0 0 0 0 0 0 0 0 0 0 0 0 0
0 0 0 0 0 0 0 0 0 1 38 1 0 13 56 217 143 18 0 0 0 0 0 0 0 0 0 0 0 0 0 0 0 0 0 0 0 0 0 0 0 0 0 0
0 0 0 0 0 0 0 0 0 11 48 0 32 67 109 305 244 130 68 0 0 0 0 0 0 0 0 0 0 0 0 0 0 0 0 0 0 0 0 0 0 0 0 0
0 0 0 0 0 0 0 0 0 0 7 120 135 19 35 393 443 319 219 15 0 0 0 0 0 0 0 0 0 0 0 0 0 0 0 0 0 0 0 0 0 0 0 0
0 0 0 0 0 0 0 0 0 0 0 0 1 24 252 500 351 454 264 33 3 0 0 0 0 0 0 0 0 0 0 0 0 0 0 0 0 0 0 0 0 0 0 0
0 0 0 0 0 0 0 0 0 0 0 0 47 83 98 259 611 427 337 24 9 0 0 0 0 0 0 0 0 0 0 0 0 0 0 0 0 0 0 0 0 0 0 0
0 0 0 0 0 0 0 0 0 0 0 0 39 94 150 59 152 117 0 43 0 0 0 0 0 0 0 0 0 0 0 0 0 0 0 0 0 0 0 0 0 0 0 0
0 0 0 0 0 0 0 0 0 0 0 2 6 110 205 0 0 0 52 6 2 0 0 0 0 0 0 0 0 0 0 0 0 0 0 0 0 0 0 0 0 0 0 0
0 0 0 0 0 0 0 0 0 0 0 0 158 271 57 16 0 59 7 3 14 0 0 0 0 0 0 0 0 0 0 0 0 0 0 0 0 0 0 0 0 0 0 0
0 0 0 0 0 0 0 0 0 0 0 0 22 118 195 2 58 163 23 0 0 0 0 0 0 0 0 0 0 0 0 0 0 0 0 0 0 0 0 0 0 0 0 2
0 0 0 0 0 0 0 0 0 0 0 0 0 103 30 13 29 164 51 6 0 0 0 0 0 0 0 0 0 0 0 0 0 0 0 0 0 0 0 0 0 0 4 4
0 0 0 0 0 0 0 0 0 0 3 0 0 2 6 80 10 72 135 11 0 0 0 0 0 0 0 0 0 0 0 0 0 0 0 0 0 0 0 1 0 0 0 0
0 0 0 0 0 0 0 0 0 93 20 0 0 7 31 234 326 269 144 0 0 0 0 0 0 0 0 0 0 0 0 0 0 0 0 0 0 0 0 0 0 0 0 5
0 0 0 0 2 0 9 0 0 6 24 0 0 64 22 35 342 65 9 0 0 0 0 0 0 0 0 0 0 0 0 0 0 0 0 0 0 0 1 0 0 0 5 10
0 0 0 0 0 0 0 2 0 0 0 6 11 0 0 136 212 29 0 0 0 0 0 0 0 0 0 0 0 0 0 0 0 0 0 0 3 0 0 0 0 0 6 13
39 0 0 0 0 0 8 2 0 0 0 52 63 70 209 151 138 24 0 0 0 0 0 0 0 0 0 0 0 0 0 0 0 0 0 0 0 3 2 0 0 13 0 11
21 0 0 0 15 17 15 15 0 0 0 19 2 0 26 70 108 35 5 0 0 0 0 0 0 0 0 0 0 0 0 0 0 0 0 0 0 5 5 0 0 11 10 19
39 4 0 8 216 182 29 2 0 0 0 3 39 7 0 74 106 52 23 1 0 0 0 0 0 0 0 0 0 0 0 0 0 0 0 3 5 6 11 4 4 9 9 17
12 67 0 9 83 12 3 0 0 0 0 0 33 2 0 8 35 57 16 0 0 0 0 0 0 0 0 0 0 0 0 0 0 2 0 1 10 1 8 8 13 23 11 3
136 183 89 330 36 24 25 60 0 0 0 189 81 0 0 4 0 0 0 0 0 0 0 0 0 0 0 0 0 0 0 0 0 2 0 0 4 10 6 16 0 11 7 2
507 448 309 360 120 21 19 0 0 0 0 163 4 0 2 59 35 0 0 0 0 0 0 0 0 0 0 0 0 0 0 1 2 1 0 3 1 0 8 12 5 6 2 1
161 368 443 295 198 85 19 119 5 227 440 254 25 33 124 65 10 0 0 0 0 0 0 0 0 0 0 0 0 0 0 1 2 0 0 0 0 5 6 15 13 10 6 5
51 29 522 399 158 19 5 639 667 496 88 108 34 28 31 3 0 0 0 0 0 0 0 0 0 0 0 0 0 0 0 0 0 0 0 0 0 4 18 26 29 17 14 12
110 37 32 24 3 6 7 366 190 186 63 42 20 1 0 0 0 0 0 0 0 0 0 0 0 0 0 0 0 0 0 0 0 2 5 0 0 3 4 12 29 6 4 1
16 42 3 59 139 32 311 186 60 13 12 0 2 0 0 0 0 0 0 0 0 0 0 0 0 0 0 0 0 2 0 0 0 1 0 3 0 2 7 25 22 14 12 3
27 21 12 510 244 442 349 82 8 0 0 0 0 0 0 0 0 0 0 0 0 0 0 0 0 0 0 0 0 0 0 0 0 0 6 0 0 2 11 8 15 24 4 0
CIN
0 0 0 0 -1 0 0 0 -57 0 -102 -2 0 0 -192 -211 -176 0 0 0 0 0 0 0 0 0 0 0 0 0 0 0 0 0 0 0 0 0 0 0 0 0 0 0
0 0 0 0 0 0 0 0 0 -123 -103 -65 0 -241 -195 -182 -209 -208 0 0 0 0 0 0 0 0 0 0 0 0 0 0 0 0 0 0 0 0 0 0 0 0 0 0
0 0 0 0 0 0 0 0 0 -120 -139 0 -359 -229 -160 -159 -154 -131 -142 0 0 0 0 0 0 0 0 0 0 0 0 0 0 0 0 0 0 0 0 0 0 0 0 0
0 0 0 0 0 0 0 0 0 0 -27 -140 -246 -37 -96 -186 -147 -78 -83 -200 0 0 0 0 0 0 0 0 0 0 0 0 0 0 0 0 0 0 0 0 0 0 0 0
0 0 0 0 0 0 0 0 0 0 0 0 -3 -41 -101 -146 -133 -137 -114 -250 -154 0 0 0 0 0 0 0 0 0 0 0 0 0 0 0 0 0 0 0 0 0 0 0
0 0 0 0 0 0 0 0 0 0 0 0 -84 -81 -131 -115 -52 -112 -144 -212 -353 0 0 0 0 0 0 0 0 0 0 0 0 0 0 0 0 0 0 0 0 0 0 0
0 0 0 0 0 0 0 0 0 0 0 0 -135 -103 -210 -354 -309 -293 0 -118 -55 0 0 0 0 0 0 0 0 0 0 0 0 0 0 0 0 0 0 0 0 0 0 0
0 0 0 0 0 0 0 0 0 0 0 -29 -88 -54 -194 0 0 0 -103 -64 -160 -52 0 0 0 0 0 0 0 0 0 0 0 0 0 0 0 0 0 0 0 0 0 0
0 0 0 0 0 0 0 0 0 0 0 0 -95 -156 -281 -323 0 -252 -347 -182 -387 0 0 0 0 0 0 0 0 0 0 0 0 0 0 0 0 0 0 0 0 0 0 -2
0 0 0 0 0 0 0 0 0 0 0 0 -14 -176 -132 -205 -262 -327 -180 0 0 0 0 0 0 0 0 0 0 0 0 0 0 0 0 0 0 0 0 0 0 0 -29 -54
0 0 0 0 0 0 0 0 0 0 0 0 0 -105 -340 -268 -169 -178 -196 -275 0 0 -4 0 0 0 0 0 0 0 0 0 0 0 0 0 0 0 0 0 0 0 -52 -53
0 0 0 0 0 0 0 0 0 0 -71 0 0 -6 -10 -232 -342 -465 -144 -188 0 0 0 0 0 0 0 0 0 0 0 0 0 0 0 0 0 0 0 -32 -4 0 0 0
0 0 0 0 0 0 0 0 0 -123 -195 0 0 -19 -157 -90 -92 -157 -176 0 0 0 0 0 0 0 0 0 0 0 0 0 0 0 0 0 -2 0 0 0 0 0 0 -39
0 0 0 0 -8 0 -10 0 0 -72 -87 0 0 -102 -116 -118 -116 -224 -292 0 0 0 0 0 0 0 0 0 0 0 0 0 0 0 0 0 0 0 -28 0 0 0 -40 -50
0 0 0 0 0 0 0 -57 0 0 0 -22 -45 0 0 -142 -136 -254 0 0 0 0 0 0 0 0 0 0 0 0 0 0 0 0 0 0 -24 0 -20 0 0 0 -37 -44
-107 0 0 0 0 0 -26 -43 -1 -2 0 -67 -119 -102 -149 -166 -176 -215 0 0 0 0 0 0 0 0 0 0 0 0 0 0 0 0 0 0 -5 -42 -52 0 -1 -19 -1 -49
-99 0 -2 -2 -42 -61 -51 -142 0 0 -5 -27 -29 0 -134 -169 -174 -236 -251 0 0 0 0 0 0 0 0 0 0 0 0 0 0 0 0 0 -13 -38 -48 -6 -11 -35 -43 -36
-23 -29 0 -116 -34 -12 -115 -76 0 -22 0 -16 -145 -225 0 -222 -240 -244 -273 -197 0 0 0 0 0 0 0 0 0 0 0 0 0 0 0 -20 -29 -29 -33 -39 -40 -41 -43 -37
-72 -64 0 -7 -58 -131 -40 0 0 0 0 0 -43 -126 0 -201 -234 -255 -302 0 0 0 0 0 0 0 0 0 0 0 0 0 0 -36 0 -10 -19 -20 -24 -15 -23 -34 -30 -45
-60 -46 -19 -40 -60 -98 -148 -162 -208 0 0 -62 -95 -19 0 -212 -10 0 0 0 0 0 0 0 0 0 0 0 0 0 0 0 0 -34 -10 0 -25 -20 -36 -27 0 -37 -37 -56
-24 -27 -15 -28 -22 -52 -149 0 0 0 0 -95 -122 0 -76 -270 -252 -32 0 0 0 0 0 0 0 0 0 0 0 0 0 -16 -29 -58 -25 -38 -26 0 -46 -53 -54 -39 -30 -45
-30 -26 -10 -20 -21 -50 -184 -83 -34 -60 -59 -85 -141 -212 -294 -414 -470 0 0 0 0 0 0 0 0 0 0 0 0 0 0 -16 -52 0 0 0 0 -30 -38 -47 -51 -56 -55 -56
-47 -97 -117 -104 -94 -318 -346 -158 -140 -143 -133 -209 -297 -327 -363 -462 0 0 0 0 0 0 0 0 0 0 0 0 0 0 0 0 0 0 0 0 0 -32 -38 -40 -40 -47 -53 -55
-250 -390 -298 -335 -130 -227 -198 -164 -137 -183 -165 -271 -353 -338 0 0 0 0 0 0 0 0 0 0 0 0 0 0 0 -6 0 0 0 -31 -22 -11 0 -44 -60 -56 -57 -66 -63 -24
-186 -377 -245 -273 -167 -309 -187 -184 -200 -244 -237 0 -207 0 0 0 0 0 0 0 0 0 0 0 0 0 0 0 0 -33 0 0 0 -11 0 -10 0 -56 -64 -48 -48 -55 -51 -47
-243 -218 -22 -65 -157 -144 -160 -200 -143 0 0 0 0 0 0 0 0 0 0 0 0 0 0 0 0 0 0 0 0 0 0 0 0 0 -28 0 -15 -59 -33 -61 -43 -46 -54 0
Wind_Speed
6 2 6 11 9 7 11 10 10 7 14 2 12 20 11 19 13 15 15 15 15 16 17 17 17 15 14 12 10 8 8 7 5 4 3 3 3 4 4 4 5 5 4 5
4 10 9 10 9 9 8 6 10 15 14 12 21 21 14 21 24 18 18 17 17 17 17 16 15 14 10 12 11 9 8 7 4 2 2 2 4 4 4 3 4 5 5 3
10 7 11 12 12 13 10 8 10 14 18 12 6 17 18 22 10 6 9 11 21 23 20 17 16 13 12 11 11 9 8 7 5 6 4 4 4 3 5 3 2 2 3 4
9 14 15 14 14 13 13 9 12 12 7 10 19 8 3 19 17 11 9 17 20 19 17 15 17 12 12 11 11 9 8 7 6 7 6 7 3 2 1 1 1 3 3 3
8 11 14 16 19 18 16 11 4 5 5 4 11 6 7 18 10 14 11 18 20 19 19 17 16 15 13 13 11 9 8 7 7 7 7 5 3 2 2 2 4 3 4 4
14 12 11 15 6 2 5 7 7 6 1 3 5 7 5 1 7 4 4 18 18 20 18 17 15 14 13 13 11 10 9 6 8 7 7 3 4 1 2 4 4 4 3 4
8 13 8 5 3 5 3 5 5 7 4 6 9 5 7 11 20 14 16 11 19 18 18 18 16 14 14 14 13 10 9 7 8 8 6 3 2 3 3 3 3 4 3 3
6 8 7 5 7 11 8 7 5 7 4 6 2 7 5 6 18 21 13 18 16 15 15 15 15 11 15 13 12 11 9 8 8 8 6 2 4 3 2 2 2 2 2 3
4 10 10 8 5 9 7 9 9 4 8 2 6 6 6 10 12 18 23 16 17 16 15 14 14 9 12 11 10 10 9 8 8 8 5 3 3 4 2 3 3 2 3 3
8 4 8 10 10 9 11 5 2 2 5 6 5 5 6 4 5 13 10 18 17 16 16 16 11 14 11 9 9 10 9 10 8 7 6 4 2 2 3 4 4 4 4 4
9 6 17 4 4 9 3 7 5 2 6 6 0 2 8 11 5 5 12 15 19 19 15 15 14 14 13 9 9 8 8 9 8 7 5 5 2 2 3 3 4 4 4 6
10 7 7 12 12 14 10 9 7 5 8 3 4 8 6 10 23 15 18 22 19 15 16 16 14 13 10 9 8 7 7 10 7 7 6 4 2 2 3 2 3 3 5 4
10 4 3 11 8 5 9 7 5 5 4 5 6 5 1 9 17 19 19 21 18 20 18 15 13 11 12 10 8 7 7 8 7 7 5 3 3 3 2 1 2 4 4 5
14 6 8 9 8 3 2 6 7 8 4 5 6 7 4 6 16 14 15 19 19 17 17 15 13 11 11 10 9 7 7 9 7 7 5 3 3 2 2 1 2 2 3 4
9 7 7 9 8 12 9 11 14 8 9 7 6 9 8 11 10 15 18 17 17 16 15 15 14 12 11 9 8 8 8 8 7 6 5 5 5 5 4 2 3 3 3 3
5 6 6 6 7 10 14 13 3 3 9 6 12 7 8 7 8 13 17 16 16 15 16 17 15 15 12 11 9 8 8 9 7 6 6 6 4 5 4 3 3 2 1 2
7 6 5 5 6 10 9 7 8 6 3 3 5 9 8 9 10 14 12 15 15 15 17 17 17 14 12 10 10 8 8 7 7 6 6 6 5 5 5 4 3 2 2 2
5 6 4 3 4 5 4 4 5 7 10 9 11 12 11 11 9 12 14 11 14 16 16 16 14 12 11 8 8 8 8 9 7 6 6 6 6 4 4 2 1 2 2 2
5 6 2 5 3 5 7 4 6 7 7 20 4 10 10 9 6 6 14 12 11 17 15 15 14 14 12 10 8 8 7 7 7 6 6 4 6 4 1 2 1 1 2 3
7 6 6 3 5 5 10 6 8 2 8 7 8 14 13 9 5 5 9 16 16 17 16 16 15 14 12 8 8 8 7 7 7 8 6 5 4 3 2 2 2 2 2 2
4 3 6 3 4 3 7 10 5 4 8 5 7 10 8 6 5 9 18 16 17 17 19 17 15 12 10 8 8 7 6 6 5 7 6 5 5 3 1 2 2 2 2 3
6 7 4 4 4 5 5 2 6 8 4 5 16 8 13 13 14 16 18 18 19 20 18 16 14 12 8 8 7 5 6 4 6 7 6 5 4 1 1 3 3 2 3 0
5 3 1 1 7 6 6 8 4 3 5 7 14 12 16 15 14 16 16 16 16 16 14 14 14 11 7 7 7 7 4 5 5 6 4 3 2 2 2 2 3 2 3 3
6 7 5 9 7 6 7 7 4 6 8 11 12 12 15 16 15 14 14 14 12 11 12 13 14 11 7 7 7 7 5 4 4 6 4 2 2 3 3 2 2 1 2 1
3 4 10 10 14 4 3 7 8 8 11 12 10 12 15 16 13 13 12 12 11 8 8 13 12 11 8 8 8 7 7 5 4 4 3 4 3 4 4 4 4 3 2 2
2 6 9 7 6 4 5 8 10 9 9 11 15 13 10 13 12 13 10 10 10 8 7 9 11 11 8 8 7 7 7 7 6 4 3 4 2 4 4 3 4 5 7 7
Wind_Direction
198 184 202 241 238 247 168 129 172 181 255 342 240 246 243 194 200 183 177 169 159 147 130 125 117 114 113 107 96 94 72 35 32 38 34 17 50 89 83 80 59 47 19 1
254 221 232 235 253 255 264 259 215 169 200 184 260 244 220 194 204 187 180 175 151 142 136 130 125 122 121 119 116 102 98 67 27 16 42 28 106 66 108 98 55 21 7 355
225 213 228 243 253 260 246 230 261 177 206 210 323 259 205 199 199 230 185 169 154 154 143 140 130 132 132 126 120 114 115 95 55 42 42 20 73 38 37 21 34 296 342 340
231 247 219 226 240 253 269 234 233 260 151 205 203 261 254 167 179 201 248 154 155 148 142 141 139 137 130 128 119 115 103 113 83 59 55 60 67 93 255 249 251 286 303 296
238 228 235 231 229 233 252 259 234 281 267 32 350 52 333 139 191 190 203 163 157 147 147 144 141 141 141 132 129 122 115 108 115 90 81 67 32 66 324 327 347 328 322 336
226 221 233 233 219 200 338 337 349 306 190 337 147 119 256 254 200 214 187 176 151 141 143 139 145 148 151 133 133 125 120 124 115 115 112 107 94 65 20 357 14 343 346 347
282 244 256 147 70 8 359 20 338 311 346 225 188 94 46 345 345 327 286 265 143 148 141 142 151 163 152 141 136 136 127 138 128 111 88 86 63 48 78 39 357 358 344 338
224 265 238 161 173 192 213 189 195 244 207 239 231 162 176 54 322 294 270 232 140 135 133 145 161 165 130 142 142 132 140 131 125 114 110 79 47 22 28 40 4 347 356 350
213 235 257 179 171 160 253 236 211 253 279 334 121 88 202 232 246 278 165 167 137 142 153 166 175 131 123 116 129 130 126 125 124 126 131 106 57 355 13 1 43 22 20 329
256 299 273 264 170 220 191 218 266 278 248 263 196 131 186 239 203 97 159 151 150 156 166 176 131 122 115 113 126 129 132 133 133 121 131 151 129 7 9 31 25 18 7 357
220 136 273 351 261 172 235 250 250 183 146 205 203 227 206 174 198 186 219 171 159 167 163 124 122 121 126 126 118 128 134 128 117 125 133 97 105 19 26 34 30 13 353 359
193 176 233 245 271 185 183 206 191 128 281 115 124 258 211 168 187 192 165 164 164 160 140 129 131 135 134 130 129 127 126 131 140 135 128 161 141 48 33 72 48 12 0 352
188 230 266 325 327 198 188 219 195 121 92 201 151 268 68 109 142 147 152 154 160 144 141 135 129 130 124 129 126 132 129 135 131 128 142 164 142 87 21 7 18 354 354 347
153 168 159 213 222 30 227 235 213 142 126 244 209 155 212 171 147 158 144 139 145 148 144 140 138 130 129 132 138 143 137 139 139 134 148 180 154 193 246 232 319 3 3 15
126 173 183 240 280 275 266 285 222 195 212 206 208 157 194 169 150 150 145 142 144 145 139 137 130 133 136 133 135 135 123 137 137 144 173 183 195 210 227 256 293 316 69 5
175 193 184 286 287 274 281 245 96 302 245 97 114 72 132 133 106 123 147 146 143 146 133 133 131 136 141 140 140 145 145 151 148 168 199 185 206 212 214 254 287 323 87 13
140 127 118 245 276 286 290 342 333 228 190 161 135 173 130 137 138 146 144 143 145 147 139 141 145 148 148 150 152 154 150 149 158 186 194 203 213 219 223 242 295 68 359 359
128 120 123 225 10 247 266 310 354 30 93 101 140 159 157 154 161 141 152 141 145 140 142 143 140 135 138 128 132 140 138 162 172 197 201 199 194 206 228 291 146 23 333 331
131 132 149 133 102 320 321 332 44 38 351 307 142 148 145 128 97 130 152 146 149 145 138 134 132 130 127 128 138 138 151 167 185 192 188 203 170 193 277 279 12 351 336 308
172 150 133 123 119 192 232 238 251 149 263 286 148 146 142 124 122 211 136 118 120 124 126 125 125 123 124 133 134 141 175 199 198 191 178 138 143 109 24 21 341 283 310 300
156 150 175 204 157 138 343 266 171 174 230 338 100 128 125 116 192 138 113 108 115 118 119 119 121 124 127 129 138 163 195 204 199 148 139 125 106 86 354 35 327 333 300 347
168 145 195 186 185 140 237 50 127 212 311 109 124 125 103 104 98 105 109 116 118 120 124 123 120 123 129 141 148 153 100 42 116 125 124 110 85 9 321 342 322 343 1 287
45 72 274 308 189 196 230 136 119 110 99 100 111 119 116 109 107 112 115 118 122 125 126 123 126 132 146 157 145 122 134 84 122 119 128 122 116 285 297 314 302 337 1 13
31 17 67 9 274 207 171 133 101 107 93 108 122 121 117 116 120 118 115 121 125 124 130 132 133 136 138 119 115 126 130 113 104 134 132 150 211 258 285 278 258 219 269 349
11 341 4 302 282 58 144 113 107 90 84 100 107 116 119 120 123 123 124 125 129 128 127 142 142 144 148 129 142 148 148 137 122 132 164 246 246 245 259 250 243 233 222 168
233 137 204 254 227 141 150 122 108 99 107 112 113 114 115 122 129 127 125 128 133 135 130 135 134 141 154 138 153 146 148 148 154 166 237 238 240 251 248 245 278 257 195 181